[Iaude] MPEC T23: 2016 TO [a=1.38,e=0.27,i=23.2,H=22.9]

mpec at si.edu mpec at si.edu
Mon Oct 3 09:31:49 EDT 2016


M.P.E.C. 2016-T23                                Issued 2016 Oct. 3, 13:27 UT
 
     The Minor Planet Electronic Circulars contain information on unusual
         minor planets and routine data on comets.  They are published
    on behalf of Division F of the International Astronomical Union by the
          Minor Planet Center, Smithsonian Astrophysical Observatory,
                          Cambridge, MA 02138, U.S.A.

             Prepared using the Tamkin Foundation Computer Network

                              MPC at CFA.HARVARD.EDU
            URL http://www.minorplanetcenter.net/    ISSN 1523-6714


                                    2016 TO
 
Observations:
     K16T00O* C2016 10 01.43021 02 15 50.50 +22 22 43.6          19.2 VqET023703
     K16T00O  C2016 10 01.43624 02 15 49.04 +22 24 18.6          19.0 VqET023703
     K16T00O  C2016 10 01.44226 02 15 47.54 +22 25 53.8          18.9 VqET023703
     K16T00O  C2016 10 01.47307 02 15 39.92 +22 33 53.8          19.5 VqET023I52
     K16T00O  C2016 10 01.47349 02 15 39.90 +22 34 00.8          19.7 VqET023I52
     K16T00O  C2016 10 01.47391 02 15 39.82 +22 34 07.1          19.5 VqET023I52
     K16T00O  C2016 10 01.47432 02 15 39.72 +22 34 13.9          19.7 VqET023I52
     K16T00O  C2016 10 01.50617 02 15 31.99 +22 42 31.1          19.8 VqET023703
     K16T00O  C2016 10 01.50667 02 15 31.96 +22 42 37.9          19.1 VqET023703
     K16T00O  C2016 10 01.50717 02 15 31.80 +22 42 45.5          18.9 VqET023703
     K16T00O  C2016 10 01.50767 02 15 31.89 +22 42 54.4          19.4 VqET023703
     K16T00O KC2016 10 02.06781 02 13 30.32 +25 11 26.5                qET023J95
     K16T00O KC2016 10 02.06921 02 13 30.01 +25 11 48.8                qET023J95
     K16T00O KC2016 10 02.07076 02 13 29.59 +25 12 13.9          18.9 RqET023J95
     K16T00O KC2016 10 02.11318 02 13 19.73 +25 24 14.5          19.3 RqET023J22
     K16T00O KC2016 10 02.11537 02 13 19.16 +25 24 49.7          19.3 RqET023J22
     K16T00O KC2016 10 02.11758 02 13 18.56 +25 25 26.8          18.9 RqET023J22
     K16T00O  C2016 10 02.20023002 13 04.02 +25 47 21.7          19.4 VtET023H01
     K16T00O  C2016 10 02.20752602 13 02.14 +25 49 21.3          19.0 VtET023H01
     K16T00O  C2016 10 02.21651002 12 59.82 +25 51 48.7          18.7 VtET023H01
     K16T00O  C2016 10 02.22192302 12 58.41 +25 53 17.6          18.7 VtET023H01
     K16T00O  C2016 10 02.27142 02 12 45.67 +26 06 52.3          18.3 RoET023926
     K16T00O  C2016 10 02.27286 02 12 45.28 +26 07 15.9          18.4 RoET023926
     K16T00O  C2016 10 02.27431 02 12 44.89 +26 07 39.6          18.3 RoET023926
     K16T00O  C2016 10 02.31493 02 12 33.77 +26 18 43.6          19.3 VqET023G96
     K16T00O  C2016 10 02.31648 02 12 33.37 +26 19 09.6          19.3 VqET023G96
     K16T00O  C2016 10 02.31805 02 12 32.94 +26 19 34.7          19.3 VqET023G96
     K16T00O  C2016 10 02.31961 02 12 32.50 +26 20 00.5          19.3 VqET023G96
     K16T00O  C2016 10 02.32643 02 12 30.60 +26 21 52.2          18.8 VqET023I52
     K16T00O  C2016 10 02.32685 02 12 30.46 +26 21 58.8          19.0 VqET023I52
     K16T00O  C2016 10 02.32727 02 12 30.38 +26 22 05.7          19.0 VqET023I52
     K16T00O  C2016 10 02.32768 02 12 30.28 +26 22 12.3          19.2 VqET023I52
     K16T00O KC2016 10 02.79891 02 10 35.87 +28 30 45.8          19.1 V ET023L04
     K16T00O KC2016 10 02.81466 02 10 31.60 +28 35 10.1          19.2 V ET023L04
     K16T00O KC2016 10 02.82005 02 10 30.10 +28 36 41.0          19.0 V ET023L04
     K16T00O KC2016 10 02.88568 02 10 12.55 +28 54 43.3          19.3 VqET023Z99
     K16T00O KC2016 10 02.88936 02 10 11.53 +28 55 45.3          19.2 VqET023Z99
     K16T00O KC2016 10 02.89304 02 10 10.51 +28 56 46.5          19.2 VqET023Z99
     K16T00O KC2016 10 03.04162 02 09 27.02 +29 38 20.0          19.7 VSET023C43
     K16T00O KC2016 10 03.04952 02 09 24.68 +29 40 30.8          19.7 VSET023C43
     K16T00O KC2016 10 03.05431 02 09 23.25 +29 41 51.2          19.3 VSET023C43
     K16T00O KC2016 10 03.08299 02 09 15.98 +29 49 51.5                qET023J95
     K16T00O KC2016 10 03.08639 02 09 15.02 +29 50 48.2                qET023J95
     K16T00O KC2016 10 03.08641 02 09 14.06 +29 50 55.7                qET023204
     K16T00O KC2016 10 03.08983 02 09 14.00 +29 51 45.5          19.3 RqET023J95
     K16T00O KC2016 10 03.09179 02 09 12.45 +29 52 25.3          19.1 RqET023204
     K16T00O KC2016 10 03.09755 02 09 10.72 +29 54 01.4                qET023204
     K16T00O KC2016 10 03.25472 02 08 31.48 +30 38 16.5          18.8 RqET023850
     K16T00O KC2016 10 03.26195 02 08 29.24 +30 40 18.0          18.8 RqET023850
     K16T00O KC2016 10 03.26904 02 08 27.01 +30 42 17.5          19.0 RqET023850
     K16T00O KC2016 10 03.27616 02 08 24.79 +30 44 17.9          19.5 RqET023850
     K16T00O KC2016 10 03.28329 02 08 22.60 +30 46 17.8          19.3 RqET023850
     K16T00O KC2016 10 03.32860 02 08 09.25 +30 58 54.0          18.8 RqET023H36
     K16T00O KC2016 10 03.33027 02 08 08.71 +30 59 22.9          19.3 RqET023H36
     K16T00O KC2016 10 03.34078 02 08 05.56 +31 02 18.8          19.1 RqET023H36
 
Observer details:
204 Schiaparelli Observatory.  Observer L. Buzzi.  0.60-m f/4.64 reflector
    + CCD.
703 Catalina Sky Survey.  Observer R. G. Matheny.  Measurers E. J. Christensen,
    D. C. Fuls, A. R. Gibbs, A. D. Grauer, J. A. Johnson, R. A. Kowalski,
    S. M. Larson, G. J. Leonard, R. G. Matheny, R. L. Seaman, F. C. Shelly.
    0.68-m Schmidt + CCD.
850 Cordell-Lorenz Observatory, Sewanee.  Observer D. T. Durig.  0.3-m f/9.4
    Schmidt-Cassegrain + CCD.
926 Tenagra II Observatory.  Observers M. Schwartz, P. R. Holvorcem.  Measurer
    M. Schwartz.  0.81-m f/7 Ritchey-Chretien + CCD.
C43 Hoyerswerda.  Observer P. Lindner.  0.30-m f/6.3 Schmidt-Cassegrain + CCD.
G96 Mt. Lemmon Survey.  Observer A. D. Grauer.  Measurers E. J. Christensen,
    D. C. Fuls, A. R. Gibbs, A. D. Grauer, J. A. Johnson, R. A. Kowalski,
    S. M. Larson, G. J. Leonard, R. G. Matheny, R. L. Seaman, F. C. Shelly.
    1.5-m reflector + 10K CCD.
H01 Magdalena Ridge Observatory, Socorro.  Observers W. H. Ryan, E. V. Ryan.
    Measurer W. H. Ryan.  2.4-m f/8.9 reflector + CCD.
H36 Sandlot Observatory, Scranton.  Observer G. Hug.  0.56-m reflector + CCD.
I52 Steward Observatory, Mt. Lemmon Station.  Observers A. R. Gibbs,
    G. J. Leonard.  Measurers E. J. Christensen, D. C. Fuls, A. R. Gibbs,
    A. D. Grauer, J. A. Johnson, R. A. Kowalski, S. M. Larson, G. J. Leonard,
    R. G. Matheny, R. L. Seaman, F. C. Shelly.  1.0-m reflector + CCD.
J22 Tacande Observatory, La Palma.  Observer K. Hills.  0.5-m f/2.9 astrograph
    + CCD.
J95 Great Shefford.  Observer P. Birtwhistle.  0.40-m f/6.0 Schmidt-Cassegrain
    + CCD.
L04 ROASTERR-1 Observatory, Cluj-Napoca.  Observer L. Hudin.  0.3-m f/5.0
    reflector + CCD.
Z99 Clixby Observatory, Cleethorpes.  Observer A. Mickleburgh.  0.36-m f/8
    Schmidt-Cassegrain + CCD.
 
Orbital elements:
2016 TO                                                  Earth MOID = 0.0829 AU
Epoch 2016 July 31.0 TT = JDT 2457600.5                 MPC
M 293.20396              (2000.0)            P               Q
n   0.60742340     Peri.   51.78858     +0.49342519     -0.86745221
a   1.3808347      Node     9.31905     +0.62296416     +0.30134155
e   0.2742527      Incl.   23.16636     +0.60699854     +0.39587869
P   1.62           H   22.9           G   0.15           U   7
Residuals in seconds of arc
161001 703 (0.2-  1.5-)   161002 H01  0.1-  0.1-    161003 C43  0.2+  0.3+
161001 703  0.1+  0.6-    161002 H01  0.1-  0.0     161003 C43  0.0   0.7-
161001 703  0.2-  0.6+    161002 926  0.1-  0.4+    161003 C43  0.3-  0.2-
161001 I52 (1.7-  0.1-)   161002 926  0.1-  0.3+    161003 J95  0.3-  0.0
161001 I52  0.5-  0.3+    161002 926  0.1-  0.3+    161003 J95  0.3+  0.1-
161001 I52  0.2-  0.1+    161002 G96  0.2-  0.1-    161003 204  0.2+  0.0
161001 I52  0.3-  0.5+    161002 G96  0.1+  0.5+    161003 J95  0.3+  0.2-
161001 703  1.0-  0.9+    161002 G96  0.2+  0.1-    161003 204  0.2+  0.1-
161001 703  0.3+  0.1-    161002 G96  0.0   0.2+    161003 204  0.0   0.1+
161001 703  0.3-  0.3-    161002 I52  0.2-  0.2+    161003 850  0.0   0.3+
161001 703 (2.6+  0.8+)   161002 I52  0.5-  0.1-    161003 850  0.1+  0.1-
161002 J95  0.3-  0.0     161002 I52  0.0   0.1-    161003 850  0.1-  0.1-
161002 J95  0.5+  0.3-    161002 I52  0.1+  0.2-    161003 850  0.0   0.3+
161002 J95  0.2+  0.2-    161002 L04  0.4+  0.1-    161003 850  0.5+  0.1+
161002 J22  0.0   0.2-    161002 L04  0.1+  0.2+    161003 H36  1.3-  0.4-
161002 J22  0.4+  0.4-    161002 L04  0.4-  0.7+    161003 H36  1.5-  0.4+
161002 J22  0.4+  1.0+    161002 Z99  0.2+  0.5+    161003 H36  0.4+  0.4-
161002 H01  0.1-  0.0     161002 Z99  0.0   0.8+
161002 H01  0.2-  0.1-    161002 Z99  0.2-  0.2+

Ephemeris:
2016 TO                  a,e,i = 1.38, 0.27, 23                  q = 1.0021
Date    TT    R. A. (2000) Decl.     Delta      r     Elong.  Phase     V
2016 09 03    02 33 47.1 -26 46 34   0.2852  1.1898   123.4    45.0    22.3
...
2016 09 18    02 37 10.9 -14 09 39   0.1700  1.1317   135.2    38.7    20.9
...
2016 09 26    02 29 31.5 +02 32 46   0.1197  1.1032   145.5    31.0    19.8
...
2016 10 02    02 13 46.3 +24 53 41   0.09622 1.0835   147.7    29.6    19.3
2016 10 03    02 09 39.0 +29 27 06   0.09428 1.0803   146.3    30.9    19.3
2016 10 04    02 04 54.3 +34 08 32   0.09301 1.0772   144.3    32.8    19.3
...
2016 10 10    01 14 24.3 +60 57 57   0.09958 1.0596   125.6    50.0    19.9
...
2016 10 18    21 26 19.2 +78 34 57   0.1353  1.0393   104.9    67.9    21.0
...
2016 11 02    16 55 29.6 +70 11 24   0.2255  1.0123    88.6    78.5    22.4

A. U. Tomatic                (C) Copyright 2016 MPC           M.P.E.C. 2016-T23




More information about the Iaude mailing list